Time,TemperatureF,DewpointF,PressureIn,WindDirection,WindDirectionDegrees,WindSpeedMPH,WindSpeedGustMPH,Humidity,HourlyPrecipIn,Conditions,Clouds,dailyrainin,SoftwareType,DateUTC
2013-08-25 00:03:00,65.8,57.4,29.78,North,0,2.0,2.0,74,0.00,,,0.00,meteohub,2013-08-25 07:03:00,
2013-08-25 00:08:00,65.8,57.7,29.78,SW,225,1.0,2.0,75,0.00,,,0.00,meteohub,2013-08-25 07:08:00,
2013-08-25 00:13:00,65.7,57.6,29.78,West,270,1.0,2.0,75,0.00,,,0.00,meteohub,2013-08-25 07:13:00,
2013-08-25 00:19:00,65.7,57.6,29.78,SW,225,2.0,2.0,75,0.00,,,0.00,meteohub,2013-08-25 07:19:00,
2013-08-25 00:24:00,65.7,57.6,29.78,East,90,1.0,2.0,75,0.00,,,0.00,meteohub,2013-08-25 07:24:00,
2013-08-25 00:29:00,65.5,57.4,29.78,SW,225,1.0,3.0,75,0.00,,,0.00,meteohub,2013-08-25 07:29:00,
2013-08-25 00:34:00,65.5,57.7,29.78,NE,45,1.0,3.0,76,0.00,,,0.00,meteohub,2013-08-25 07:34:00,
2013-08-25 00:39:00,65.1,57.4,29.78,SW,225,1.0,3.0,76,0.00,,,0.00,meteohub,2013-08-25 07:39:00,
2013-08-25 00:44:00,65.1,57.4,29.78,NE,45,0.0,2.0,76,0.00,,,0.00,meteohub,2013-08-25 07:44:00,
2013-08-25 00:49:00,64.9,57.2,29.78,NW,315,2.0,2.0,76,0.00,,,0.00,meteohub,2013-08-25 07:49:00,
2013-08-25 00:54:00,64.9,57.6,29.78,North,0,0.0,1.0,77,0.00,,,0.00,meteohub,2013-08-25 07:54:00,
2013-08-25 00:59:00,64.8,57.4,29.78,NE,45,1.0,2.0,77,0.00,,,0.00,meteohub,2013-08-25 07:59:00,
2013-08-25 01:04:00,64.8,57.4,29.78,NE,45,0.0,2.0,77,0.00,,,0.00,meteohub,2013-08-25 08:04:00,
2013-08-25 01:09:00,64.8,57.4,29.78,NE,45,0.0,2.0,77,0.00,,,0.00,meteohub,2013-08-25 08:09:00,
2013-08-25 01:14:00,64.6,57.6,29.79,North,0,3.0,3.0,78,0.00,,,0.00,meteohub,2013-08-25 08:14:00,
2013-08-25 01:19:00,64.4,57.4,29.79,NE,45,0.0,3.0,78,0.00,,,0.00,meteohub,2013-08-25 08:19:00,
2013-08-25 01:24:00,64.2,57.6,29.79,NE,45,1.0,3.0,79,0.00,,,0.00,meteohub,2013-08-25 08:24:00,
2013-08-25 01:30:00,64.2,57.6,29.79,NE,45,0.0,3.0,79,0.00,,,0.00,meteohub,2013-08-25 08:30:00,
2013-08-25 01:35:00,64.0,57.4,29.78,NE,45,0.0,3.0,79,0.00,,,0.00,meteohub,2013-08-25 08:35:00,
2013-08-25 01:40:00,63.9,57.6,29.79,SW,225,0.0,3.0,80,0.00,,,0.00,meteohub,2013-08-25 08:40:00,
2013-08-25 01:45:00,63.9,57.6,29.78,South,180,0.0,3.0,80,0.00,,,0.00,meteohub,2013-08-25 08:45:00,
2013-08-25 01:50:00,63.7,57.4,29.78,SE,135,0.0,1.0,80,0.00,,,0.00,meteohub,2013-08-25 08:50:00,
2013-08-25 01:55:00,63.7,57.4,29.79,South,180,1.0,2.0,80,0.00,,,0.00,meteohub,2013-08-25 08:55:00,
2013-08-25 02:00:00,63.5,57.6,29.79,North,0,1.0,2.0,81,0.00,,,0.00,meteohub,2013-08-25 09:00:00,
2013-08-25 02:05:00,63.5,57.6,29.79,North,0,1.0,2.0,81,0.00,,,0.00,meteohub,2013-08-25 09:05:00,
2013-08-25 02:10:00,63.5,57.9,29.79,NW,315,1.0,2.0,82,0.00,,,0.00,meteohub,2013-08-25 09:10:00,
2013-08-25 02:15:00,63.5,57.9,29.79,NE,45,0.0,2.0,82,0.00,,,0.00,meteohub,2013-08-25 09:15:00,
2013-08-25 02:20:00,63.3,57.7,29.79,South,180,1.0,2.0,82,0.00,,,0.00,meteohub,2013-08-25 09:20:00,
2013-08-25 02:25:00,63.3,57.7,29.79,SW,225,1.0,1.0,82,0.00,,,0.00,meteohub,2013-08-25 09:25:00,
2013-08-25 02:30:00,63.3,57.7,29.79,SE,135,0.0,1.0,82,0.00,,,0.00,meteohub,2013-08-25 09:30:00,
2013-08-25 02:35:00,63.1,57.9,29.79,NE,45,0.0,1.0,83,0.00,,,0.00,meteohub,2013-08-25 09:35:00,
2013-08-25 02:40:00,63.1,57.9,29.79,NE,45,0.0,1.0,83,0.00,,,0.00,meteohub,2013-08-25 09:40:00,
2013-08-25 02:45:00,63.1,57.9,29.79,SW,225,2.0,2.0,83,0.00,,,0.00,meteohub,2013-08-25 09:45:00,
2013-08-25 02:51:00,63.1,57.9,29.79,SW,225,0.0,2.0,83,0.00,,,0.00,meteohub,2013-08-25 09:51:00,
2013-08-25 02:56:00,63.3,58.1,29.79,South,180,0.0,2.0,83,0.00,,,0.00,meteohub,2013-08-25 09:56:00,
2013-08-25 03:01:00,63.3,58.1,29.79,South,180,0.0,2.0,83,0.00,,,0.00,meteohub,2013-08-25 10:01:00,
2013-08-25 03:06:00,63.5,58.3,29.79,South,180,0.0,1.0,83,0.00,,,0.00,meteohub,2013-08-25 10:06:00,
2013-08-25 03:11:00,63.5,58.3,29.79,SW,225,0.0,0.0,83,0.00,,,0.00,meteohub,2013-08-25 10:11:00,
2013-08-25 03:16:00,63.5,58.3,29.79,South,180,0.0,1.0,83,0.00,,,0.00,meteohub,2013-08-25 10:16:00,
2013-08-25 03:21:00,63.5,58.3,29.79,South,180,0.0,1.0,83,0.00,,,0.00,meteohub,2013-08-25 10:21:00,
2013-08-25 03:26:00,63.7,58.5,29.79,South,180,1.0,0.0,83,0.00,,,0.00,meteohub,2013-08-25 10:26:00,
2013-08-25 03:31:00,63.9,58.6,29.79,SW,225,0.0,1.0,83,0.00,,,0.00,meteohub,2013-08-25 10:31:00,
2013-08-25 03:36:00,63.9,58.6,29.80,West,270,0.0,1.0,83,0.00,,,0.00,meteohub,2013-08-25 10:36:00,
2013-08-25 03:41:00,63.9,58.6,29.80,SE,135,0.0,1.0,83,0.00,,,0.00,meteohub,2013-08-25 10:41:00,
2013-08-25 03:46:00,63.9,58.6,29.80,SE,135,0.0,1.0,83,0.00,,,0.00,meteohub,2013-08-25 10:46:00,
2013-08-25 03:51:00,63.9,59.0,29.80,SE,135,0.0,0.0,84,0.00,,,0.00,meteohub,2013-08-25 10:51:00,
2013-08-25 03:56:00,63.9,59.0,29.80,SW,225,0.0,1.0,84,0.00,,,0.00,meteohub,2013-08-25 10:56:00,
2013-08-25 04:02:00,63.9,59.0,29.80,SW,225,0.0,1.0,84,0.00,,,0.00,meteohub,2013-08-25 11:02:00,
2013-08-25 04:07:00,63.9,59.0,29.80,SW,225,0.0,1.0,84,0.00,,,0.00,meteohub,2013-08-25 11:07:00,
2013-08-25 04:12:00,63.7,58.8,29.81,South,180,0.0,1.0,84,0.00,,,0.00,meteohub,2013-08-25 11:12:00,
2013-08-25 04:17:00,63.5,58.8,29.81,South,180,0.0,2.0,85,0.00,,,0.00,meteohub,2013-08-25 11:17:00,
2013-08-25 04:22:00,63.5,58.8,29.81,South,180,0.0,2.0,85,0.00,,,0.00,meteohub,2013-08-25 11:22:00,
2013-08-25 04:27:00,63.5,58.8,29.80,South,180,0.0,2.0,85,0.00,,,0.00,meteohub,2013-08-25 11:27:00,
2013-08-25 04:32:00,63.3,59.0,29.80,SW,225,0.0,1.0,86,0.00,,,0.00,meteohub,2013-08-25 11:32:00,
2013-08-25 04:37:00,63.3,59.0,29.80,West,270,0.0,1.0,86,0.00,,,0.00,meteohub,2013-08-25 11:37:00,
2013-08-25 04:42:00,63.3,59.0,29.81,SE,135,0.0,1.0,86,0.00,,,0.00,meteohub,2013-08-25 11:42:00,
2013-08-25 04:47:00,63.3,59.0,29.81,South,180,0.0,1.0,86,0.00,,,0.00,meteohub,2013-08-25 11:47:00,
2013-08-25 04:52:00,63.1,58.8,29.81,South,180,0.0,1.0,86,0.00,,,0.00,meteohub,2013-08-25 11:52:00,
2013-08-25 04:57:00,63.1,59.2,29.81,South,180,0.0,1.0,87,0.00,,,0.00,meteohub,2013-08-25 11:57:00,
2013-08-25 05:02:00,63.1,59.2,29.80,South,180,1.0,1.0,87,0.00,,,0.00,meteohub,2013-08-25 12:02:00,
2013-08-25 05:07:00,63.1,59.2,29.80,South,180,1.0,1.0,87,0.00,,,0.00,meteohub,2013-08-25 12:07:00,
2013-08-25 05:12:00,62.8,58.8,29.80,South,180,0.0,1.0,87,0.00,,,0.00,meteohub,2013-08-25 12:12:00,
2013-08-25 05:17:00,62.8,58.8,29.80,South,180,0.0,1.0,87,0.00,,,0.00,meteohub,2013-08-25 12:17:00,
2013-08-25 05:22:00,62.8,58.8,29.81,South,180,0.0,1.0,87,0.00,,,0.00,meteohub,2013-08-25 12:22:00,
2013-08-25 05:27:00,62.6,58.6,29.80,South,180,0.0,1.0,87,0.00,,,0.00,meteohub,2013-08-25 12:27:00,
2013-08-25 05:32:00,62.6,58.6,29.81,SW,225,0.0,1.0,87,0.00,,,0.00,meteohub,2013-08-25 12:32:00,
2013-08-25 05:37:00,62.6,58.6,29.81,SW,225,0.0,1.0,87,0.00,,,0.00,meteohub,2013-08-25 12:37:00,
2013-08-25 05:42:00,62.6,58.6,29.81,SE,135,0.0,1.0,87,0.00,,,0.00,meteohub,2013-08-25 12:42:00,
2013-08-25 05:47:00,62.4,58.5,29.81,SE,135,0.0,0.0,87,0.00,,,0.00,meteohub,2013-08-25 12:47:00,
2013-08-25 05:52:00,62.6,58.6,29.80,SE,135,0.0,0.0,87,0.00,,,0.00,meteohub,2013-08-25 12:52:00,
2013-08-25 05:57:00,62.4,58.5,29.81,NE,45,0.0,0.0,87,0.00,,,0.00,meteohub,2013-08-25 12:57:00,
2013-08-25 06:02:00,62.6,58.6,29.81,South,180,0.0,1.0,87,0.00,,,0.00,meteohub,2013-08-25 13:02:00,
2013-08-25 06:07:00,62.6,59.0,29.81,South,180,0.0,1.0,88,0.00,,,0.00,meteohub,2013-08-25 13:07:00,
2013-08-25 06:12:00,62.6,59.0,29.81,East,90,0.0,1.0,88,0.00,,,0.00,meteohub,2013-08-25 13:12:00,
2013-08-25 06:17:00,62.6,59.0,29.81,SW,225,0.0,0.0,88,0.00,,,0.00,meteohub,2013-08-25 13:17:00,
2013-08-25 06:22:00,62.8,59.2,29.81,West,270,0.0,0.0,88,0.00,,,0.00,meteohub,2013-08-25 13:22:00,
2013-08-25 06:27:00,62.8,59.2,29.82,South,180,0.0,1.0,88,0.00,,,0.00,meteohub,2013-08-25 13:27:00,
2013-08-25 06:32:00,62.8,59.2,29.82,South,180,0.0,1.0,88,0.00,,,0.00,meteohub,2013-08-25 13:32:00,
2013-08-25 06:37:00,62.8,59.2,29.82,South,180,0.0,0.0,88,0.00,,,0.00,meteohub,2013-08-25 13:37:00,
2013-08-25 06:42:00,62.8,59.2,29.82,South,180,0.0,0.0,88,0.00,,,0.00,meteohub,2013-08-25 13:42:00,
2013-08-25 06:47:00,62.8,59.2,29.82,South,180,0.0,0.0,88,0.00,,,0.00,meteohub,2013-08-25 13:47:00,
2013-08-25 06:52:00,63.0,59.4,29.82,South,180,0.0,0.0,88,0.00,,,0.00,meteohub,2013-08-25 13:52:00,
2013-08-25 06:57:00,63.0,59.4,29.83,South,180,0.0,0.0,88,0.00,,,0.00,meteohub,2013-08-25 13:57:00,
2013-08-25 07:02:00,63.0,59.7,29.82,South,180,0.0,0.0,89,0.00,,,0.00,meteohub,2013-08-25 14:02:00,
2013-08-25 07:07:00,63.1,59.5,29.82,SW,225,0.0,1.0,88,0.00,,,0.00,meteohub,2013-08-25 14:07:00,
2013-08-25 07:12:00,63.3,59.7,29.83,SW,225,0.0,1.0,88,0.00,,,0.00,meteohub,2013-08-25 14:12:00,
2013-08-25 07:17:00,63.3,59.7,29.83,SW,225,0.0,1.0,88,0.00,,,0.00,meteohub,2013-08-25 14:17:00,
2013-08-25 07:22:00,63.5,59.9,29.82,SW,225,0.0,1.0,88,0.00,,,0.00,meteohub,2013-08-25 14:22:00,
2013-08-25 07:27:00,63.5,59.9,29.82,SW,225,0.0,0.0,88,0.00,,,0.00,meteohub,2013-08-25 14:27:00,
2013-08-25 07:32:00,63.7,60.1,29.83,SW,225,0.0,0.0,88,0.00,,,0.00,meteohub,2013-08-25 14:32:00,
2013-08-25 07:37:00,63.9,60.3,29.83,West,270,2.0,2.0,88,0.00,,,0.00,meteohub,2013-08-25 14:37:00,
2013-08-25 07:42:00,64.0,60.4,29.83,West,270,0.0,2.0,88,0.00,,,0.00,meteohub,2013-08-25 14:42:00,
2013-08-25 07:47:00,64.2,60.6,29.83,West,270,0.0,2.0,88,0.00,,,0.00,meteohub,2013-08-25 14:47:00,
2013-08-25 07:52:00,64.4,60.8,29.83,West,270,0.0,2.0,88,0.00,,,0.00,meteohub,2013-08-25 14:52:00,
2013-08-25 07:57:00,64.8,61.2,29.83,NW,315,0.0,1.0,88,0.00,,,0.00,meteohub,2013-08-25 14:57:00,
2013-08-25 08:02:00,64.8,61.2,29.83,NW,315,0.0,1.0,88,0.00,,,0.00,meteohub,2013-08-25 15:02:00,
2013-08-25 08:07:00,65.1,61.2,29.83,North,0,0.0,1.0,87,0.00,,,0.00,meteohub,2013-08-25 15:07:00,
2013-08-25 08:12:00,65.5,61.5,29.83,West,270,0.0,1.0,87,0.00,,,0.00,meteohub,2013-08-25 15:12:00,
2013-08-25 08:17:00,65.8,61.9,29.83,NW,315,0.0,1.0,87,0.00,,,0.00,meteohub,2013-08-25 15:17:00,
2013-08-25 08:22:00,66.4,62.4,29.83,SW,225,0.0,1.0,87,0.00,,,0.00,meteohub,2013-08-25 15:22:00,
2013-08-25 08:27:00,66.9,62.6,29.83,North,0,2.0,2.0,86,0.00,,,0.00,meteohub,2013-08-25 15:27:00,
2013-08-25 08:32:00,68.0,63.7,29.84,South,180,2.0,2.0,86,0.00,,,0.00,meteohub,2013-08-25 15:32:00,
2013-08-25 08:37:00,69.3,64.2,29.83,South,180,2.0,2.0,84,0.00,,,0.00,meteohub,2013-08-25 15:37:00,
2013-08-25 08:42:00,70.7,65.3,29.83,West,270,1.0,2.0,83,0.00,,,0.00,meteohub,2013-08-25 15:42:00,
2013-08-25 08:47:00,72.1,65.7,29.84,West,270,1.0,2.0,80,0.00,,,0.00,meteohub,2013-08-25 15:47:00,
2013-08-25 08:52:00,73.6,65.8,29.84,NE,45,1.0,2.0,77,0.00,,,0.00,meteohub,2013-08-25 15:52:00,
2013-08-25 08:57:00,74.8,66.0,29.84,East,90,2.0,2.0,74,0.00,,,0.00,meteohub,2013-08-25 15:57:00,
2013-08-25 09:02:00,75.4,66.2,29.84,SW,225,2.0,2.0,73,0.00,,,0.00,meteohub,2013-08-25 16:02:00,
2013-08-25 09:07:00,76.3,65.3,29.84,SW,225,2.0,2.0,69,0.00,,,0.00,meteohub,2013-08-25 16:07:00,
2013-08-25 09:12:00,76.5,65.1,29.84,NE,45,2.0,2.0,68,0.00,,,0.00,meteohub,2013-08-25 16:12:00,
2013-08-25 09:17:00,76.5,64.8,29.84,SW,225,2.0,2.0,67,0.00,,,0.00,meteohub,2013-08-25 16:17:00,
2013-08-25 09:22:00,76.8,64.9,29.84,SE,135,1.0,2.0,67,0.00,,,0.00,meteohub,2013-08-25 16:22:00,
2013-08-25 09:27:00,77.2,64.9,29.84,SW,225,2.0,2.0,66,0.00,,,0.00,meteohub,2013-08-25 16:27:00,
2013-08-25 09:32:00,77.7,64.9,29.84,West,270,2.0,2.0,65,0.00,,,0.00,meteohub,2013-08-25 16:32:00,
2013-08-25 09:38:00,78.4,65.3,29.84,West,270,2.0,2.0,64,0.00,,,0.00,meteohub,2013-08-25 16:38:00,
2013-08-25 09:43:00,79.0,65.3,29.84,South,180,2.0,3.0,63,0.00,,,0.00,meteohub,2013-08-25 16:43:00,
2013-08-25 09:48:00,79.5,64.9,29.85,West,270,2.0,3.0,61,0.00,,,0.00,meteohub,2013-08-25 16:48:00,
2013-08-25 09:53:00,79.9,65.3,29.85,South,180,2.0,2.0,61,0.00,,,0.00,meteohub,2013-08-25 16:53:00,
2013-08-25 09:58:00,81.0,65.3,29.85,West,270,2.0,2.0,59,0.00,,,0.00,meteohub,2013-08-25 16:58:00,
2013-08-25 10:03:00,81.5,64.8,29.84,SW,225,2.0,2.0,57,0.00,,,0.00,meteohub,2013-08-25 17:03:00,
2013-08-25 10:08:00,82.0,65.3,29.85,North,0,2.0,3.0,57,0.00,,,0.00,meteohub,2013-08-25 17:08:00,
2013-08-25 10:13:00,82.6,64.8,29.84,SW,225,2.0,3.0,55,0.00,,,0.00,meteohub,2013-08-25 17:13:00,
2013-08-25 10:18:00,83.1,65.8,29.85,NE,45,1.0,3.0,56,0.00,,,0.00,meteohub,2013-08-25 17:18:00,
2013-08-25 10:23:00,83.8,66.0,29.85,East,90,2.0,3.0,55,0.00,,,0.00,meteohub,2013-08-25 17:23:00,
2013-08-25 10:28:00,84.6,66.0,29.85,South,180,2.0,2.0,54,0.00,,,0.00,meteohub,2013-08-25 17:28:00,
2013-08-25 10:33:00,85.3,65.7,29.85,SW,225,2.0,2.0,52,0.00,,,0.00,meteohub,2013-08-25 17:33:00,
2013-08-25 10:38:00,85.8,66.2,29.85,North,0,2.0,2.0,52,0.00,,,0.00,meteohub,2013-08-25 17:38:00,
2013-08-25 10:43:00,86.2,66.6,29.85,East,90,4.0,4.0,52,0.00,,,0.00,meteohub,2013-08-25 17:43:00,
2013-08-25 10:49:00,86.4,66.0,29.85,SE,135,2.0,4.0,51,0.00,,,0.00,meteohub,2013-08-25 17:49:00,
2013-08-25 10:54:00,86.7,66.4,29.85,SW,225,2.0,4.0,51,0.00,,,0.00,meteohub,2013-08-25 17:54:00,
2013-08-25 10:59:00,87.4,65.8,29.85,East,90,2.0,4.0,49,0.00,,,0.00,meteohub,2013-08-25 17:59:00,
2013-08-25 11:04:00,87.8,66.2,29.85,West,270,2.0,3.0,49,0.00,,,0.00,meteohub,2013-08-25 18:04:00,
2013-08-25 11:09:00,88.0,65.8,29.85,West,270,2.0,3.0,48,0.00,,,0.00,meteohub,2013-08-25 18:09:00,
2013-08-25 11:14:00,88.0,66.4,29.85,West,270,2.0,3.0,49,0.00,,,0.00,meteohub,2013-08-25 18:14:00,
2013-08-25 11:19:00,88.3,66.2,29.85,East,90,4.0,4.0,48,0.00,,,0.00,meteohub,2013-08-25 18:19:00,
2013-08-25 11:24:00,88.5,66.4,29.85,NE,45,3.0,4.0,48,0.00,,,0.00,meteohub,2013-08-25 18:24:00,
2013-08-25 11:29:00,88.7,66.6,29.85,South,180,2.0,4.0,48,0.00,,,0.00,meteohub,2013-08-25 18:29:00,
2013-08-25 11:34:00,88.9,66.6,29.84,SE,135,4.0,4.0,48,0.00,,,0.00,meteohub,2013-08-25 18:34:00,
2013-08-25 11:39:00,89.2,65.7,29.84,NW,315,2.0,4.0,46,0.00,,,0.00,meteohub,2013-08-25 18:39:00,
2013-08-25 11:44:00,89.8,65.7,29.84,South,180,2.0,4.0,45,0.00,,,0.00,meteohub,2013-08-25 18:44:00,
2013-08-25 11:49:00,90.0,64.4,29.84,SW,225,2.0,4.0,43,0.00,,,0.00,meteohub,2013-08-25 18:49:00,
2013-08-25 11:55:00,90.1,64.6,29.85,South,180,2.0,4.0,43,0.00,,,0.00,meteohub,2013-08-25 18:55:00,
2013-08-25 12:00:00,90.7,65.1,29.85,South,180,2.0,4.0,43,0.00,,,0.00,meteohub,2013-08-25 19:00:00,
2013-08-25 12:05:00,91.0,64.8,29.84,SE,135,4.0,4.0,42,0.00,,,0.00,meteohub,2013-08-25 19:05:00,
2013-08-25 12:10:00,91.2,64.2,29.85,SW,225,2.0,3.0,41,0.00,,,0.00,meteohub,2013-08-25 19:10:00,
2013-08-25 12:15:00,91.0,64.0,29.85,South,180,2.0,4.0,41,0.00,,,0.00,meteohub,2013-08-25 19:15:00,
2013-08-25 12:20:00,91.0,64.0,29.85,West,270,2.0,4.0,41,0.00,,,0.00,meteohub,2013-08-25 19:20:00,
2013-08-25 12:25:00,91.4,63.7,29.84,WNW,293,2.0,4.0,40,0.00,,,0.00,meteohub,2013-08-25 19:25:00,
2013-08-25 12:30:00,91.4,63.7,29.84,SW,225,4.0,4.0,40,0.00,,,0.00,meteohub,2013-08-25 19:30:00,
2013-08-25 12:35:00,91.6,63.1,29.84,SW,225,4.0,4.0,39,0.00,,,0.00,meteohub,2013-08-25 19:35:00,
2013-08-25 12:40:00,91.6,63.9,29.84,SE,135,2.0,4.0,40,0.00,,,0.00,meteohub,2013-08-25 19:40:00,
2013-08-25 12:45:00,91.8,64.0,29.84,NW,315,2.0,6.0,40,0.00,,,0.00,meteohub,2013-08-25 19:45:00,
2013-08-25 12:50:00,91.9,63.5,29.84,NW,315,3.0,6.0,39,0.00,,,0.00,meteohub,2013-08-25 19:50:00,
2013-08-25 12:55:00,92.1,64.4,29.84,NW,315,2.0,6.0,40,0.00,,,0.00,meteohub,2013-08-25 19:55:00,
2013-08-25 13:01:00,92.3,63.0,29.84,East,90,2.0,4.0,38,0.00,,,0.00,meteohub,2013-08-25 20:01:00,
2013-08-25 13:06:00,92.1,62.8,29.84,South,180,3.0,4.0,38,0.00,,,0.00,meteohub,2013-08-25 20:06:00,
2013-08-25 13:11:00,91.6,62.4,29.84,NW,315,2.0,4.0,38,0.00,,,0.00,meteohub,2013-08-25 20:11:00,
2013-08-25 13:16:00,91.4,63.0,29.84,SE,135,3.0,4.0,39,0.00,,,0.00,meteohub,2013-08-25 20:16:00,
2013-08-25 13:21:00,91.9,62.8,29.84,East,90,3.0,4.0,38,0.00,,,0.00,meteohub,2013-08-25 20:21:00,
2013-08-25 13:26:00,92.1,62.8,29.84,East,90,3.0,4.0,38,0.00,,,0.00,meteohub,2013-08-25 20:26:00,
2013-08-25 13:31:00,91.9,62.8,29.85,SW,225,3.0,4.0,38,0.00,,,0.00,meteohub,2013-08-25 20:31:00,
2013-08-25 13:36:00,91.9,62.8,29.85,South,180,2.0,4.0,38,0.00,,,0.00,meteohub,2013-08-25 20:36:00,
2013-08-25 13:41:00,91.9,62.8,29.84,South,180,2.0,4.0,38,0.00,,,0.00,meteohub,2013-08-25 20:41:00,
2013-08-25 13:46:00,92.1,62.8,29.84,West,270,2.0,5.0,38,0.00,,,0.00,meteohub,2013-08-25 20:46:00,
2013-08-25 13:51:00,92.7,62.6,29.84,South,180,4.0,5.0,37,0.00,,,0.00,meteohub,2013-08-25 20:51:00,
2013-08-25 13:56:00,92.8,61.9,29.84,South,180,2.0,4.0,36,0.00,,,0.00,meteohub,2013-08-25 20:56:00,
2013-08-25 14:01:00,93.0,63.0,29.84,West,270,2.0,4.0,37,0.00,,,0.00,meteohub,2013-08-25 21:01:00,
2013-08-25 14:06:00,93.4,62.4,29.85,SW,225,3.0,4.0,36,0.00,,,0.00,meteohub,2013-08-25 21:06:00,
2013-08-25 14:12:00,93.7,61.9,29.84,South,180,4.0,4.0,35,0.00,,,0.00,meteohub,2013-08-25 21:12:00,
2013-08-25 14:17:00,93.2,61.5,29.84,South,180,3.0,5.0,35,0.00,,,0.00,meteohub,2013-08-25 21:17:00,
2013-08-25 14:22:00,92.8,61.2,29.84,North,0,4.0,5.0,35,0.00,,,0.00,meteohub,2013-08-25 21:22:00,
2013-08-25 14:27:00,92.7,61.0,29.84,South,180,2.0,5.0,35,0.00,,,0.00,meteohub,2013-08-25 21:27:00,
2013-08-25 14:32:00,93.0,61.3,29.84,SE,135,3.0,4.0,35,0.00,,,0.00,meteohub,2013-08-25 21:32:00,
2013-08-25 14:37:00,93.2,61.5,29.84,SE,135,2.0,4.0,35,0.00,,,0.00,meteohub,2013-08-25 21:37:00,
2013-08-25 14:42:00,93.7,61.9,29.83,West,270,2.0,4.0,35,0.00,,,0.00,meteohub,2013-08-25 21:42:00,
2013-08-25 14:47:00,93.9,62.1,29.84,NE,45,2.0,4.0,35,0.00,,,0.00,meteohub,2013-08-25 21:47:00,
2013-08-25 14:52:00,94.1,62.2,29.83,East,90,2.0,4.0,35,0.00,,,0.00,meteohub,2013-08-25 21:52:00,
2013-08-25 14:57:00,93.7,61.2,29.83,SW,225,2.0,4.0,34,0.00,,,0.00,meteohub,2013-08-25 21:57:00,
2013-08-25 15:02:00,93.6,61.0,29.83,SW,225,2.0,5.0,34,0.00,,,0.00,meteohub,2013-08-25 22:02:00,
2013-08-25 15:07:00,93.7,61.2,29.83,SW,225,3.0,5.0,34,0.00,,,0.00,meteohub,2013-08-25 22:07:00,
2013-08-25 15:12:00,93.7,61.9,29.83,SW,225,2.0,5.0,35,0.00,,,0.00,meteohub,2013-08-25 22:12:00,
2013-08-25 15:17:00,93.9,61.3,29.83,SW,225,2.0,4.0,34,0.00,,,0.00,meteohub,2013-08-25 22:17:00,
2013-08-25 15:22:00,93.9,61.3,29.82,South,180,3.0,5.0,34,0.00,,,0.00,meteohub,2013-08-25 22:22:00,
2013-08-25 15:27:00,93.9,62.1,29.82,SW,225,2.0,5.0,35,0.00,,,0.00,meteohub,2013-08-25 22:27:00,
2013-08-25 15:32:00,93.7,61.2,29.82,South,180,4.0,5.0,34,0.00,,,0.00,meteohub,2013-08-25 22:32:00,
2013-08-25 15:37:00,92.8,60.3,29.82,West,270,5.0,5.0,34,0.00,,,0.00,meteohub,2013-08-25 22:37:00,
2013-08-25 15:42:00,92.7,61.0,29.82,ESE,113,2.0,5.0,35,0.00,,,0.00,meteohub,2013-08-25 22:42:00,
2013-08-25 15:47:00,92.7,60.3,29.82,South,180,2.0,5.0,34,0.00,,,0.00,meteohub,2013-08-25 22:47:00,
2013-08-25 15:52:00,93.0,60.4,29.82,South,180,2.0,5.0,34,0.00,,,0.00,meteohub,2013-08-25 22:52:00,
2013-08-25 15:57:00,93.4,60.8,29.81,North,0,3.0,3.0,34,0.00,,,0.00,meteohub,2013-08-25 22:57:00,
2013-08-25 16:02:00,93.2,60.6,29.81,East,90,2.0,4.0,34,0.00,,,0.00,meteohub,2013-08-25 23:02:00,
2013-08-25 16:07:00,93.2,60.6,29.81,SE,135,2.0,4.0,34,0.00,,,0.00,meteohub,2013-08-25 23:07:00,
2013-08-25 16:12:00,93.4,59.9,29.81,North,0,3.0,4.0,33,0.00,,,0.00,meteohub,2013-08-25 23:12:00,
2013-08-25 16:17:00,93.2,60.6,29.81,NE,45,3.0,4.0,34,0.00,,,0.00,meteohub,2013-08-25 23:17:00,
2013-08-25 16:22:00,93.0,60.4,29.81,West,270,2.0,4.0,34,0.00,,,0.00,meteohub,2013-08-25 23:22:00,
2013-08-25 16:27:00,92.7,61.0,29.81,NW,315,2.0,5.0,35,0.00,,,0.00,meteohub,2013-08-25 23:27:00,
2013-08-25 16:32:00,92.3,59.9,29.81,East,90,4.0,5.0,34,0.00,,,0.00,meteohub,2013-08-25 23:32:00,
2013-08-25 16:37:00,91.8,60.3,29.81,North,0,4.0,6.0,35,0.00,,,0.00,meteohub,2013-08-25 23:37:00,
2013-08-25 16:42:00,91.6,60.1,29.81,East,90,2.0,6.0,35,0.00,,,0.00,meteohub,2013-08-25 23:42:00,
2013-08-25 16:47:00,91.6,60.8,29.80,NW,315,2.0,6.0,36,0.00,,,0.00,meteohub,2013-08-25 23:47:00,
2013-08-25 16:52:00,91.8,61.0,29.80,SW,225,3.0,4.0,36,0.00,,,0.00,meteohub,2013-08-25 23:52:00,
2013-08-25 16:57:00,91.6,60.8,29.80,NE,45,2.0,3.0,36,0.00,,,0.00,meteohub,2013-08-25 23:57:00,
2013-08-25 17:02:00,91.4,60.6,29.80,South,180,3.0,4.0,36,0.00,,,0.00,meteohub,2013-08-26 00:02:00,
2013-08-25 17:07:00,90.5,60.6,29.80,SW,225,3.0,6.0,37,0.00,,,0.00,meteohub,2013-08-26 00:07:00,
2013-08-25 17:12:00,89.8,60.1,29.80,SW,225,2.0,6.0,37,0.00,,,0.00,meteohub,2013-08-26 00:12:00,
2013-08-25 17:17:00,89.4,60.4,29.79,NW,315,4.0,4.0,38,0.00,,,0.00,meteohub,2013-08-26 00:17:00,
2013-08-25 17:22:00,88.9,59.9,29.79,SW,225,2.0,4.0,38,0.00,,,0.00,meteohub,2013-08-26 00:22:00,
2013-08-25 17:27:00,88.7,60.6,29.79,NE,45,2.0,4.0,39,0.00,,,0.00,meteohub,2013-08-26 00:27:00,
2013-08-25 17:32:00,88.5,60.4,29.79,South,180,1.0,4.0,39,0.00,,,0.00,meteohub,2013-08-26 00:32:00,
2013-08-25 17:37:00,88.2,60.8,29.79,NW,315,2.0,4.0,40,0.00,,,0.00,meteohub,2013-08-26 00:37:00,
2013-08-25 17:42:00,87.8,60.4,29.79,SW,225,2.0,4.0,40,0.00,,,0.00,meteohub,2013-08-26 00:42:00,
2013-08-25 17:47:00,87.6,60.3,29.79,NW,315,2.0,4.0,40,0.00,,,0.00,meteohub,2013-08-26 00:47:00,
2013-08-25 17:52:00,87.3,59.9,29.79,NW,315,4.0,4.0,40,0.00,,,0.00,meteohub,2013-08-26 00:52:00,
2013-08-25 17:57:00,87.1,60.4,29.79,NW,315,2.0,4.0,41,0.00,,,0.00,meteohub,2013-08-26 00:57:00,
2013-08-25 18:02:00,86.7,60.3,29.79,West,270,2.0,4.0,41,0.00,,,0.00,meteohub,2013-08-26 01:02:00,
2013-08-25 18:07:00,86.5,60.1,29.79,NE,45,2.0,4.0,41,0.00,,,0.00,meteohub,2013-08-26 01:07:00,
2013-08-25 18:12:00,86.2,59.7,29.79,SW,225,2.0,2.0,41,0.00,,,0.00,meteohub,2013-08-26 01:12:00,
2013-08-25 18:17:00,85.8,60.1,29.79,South,180,2.0,2.0,42,0.00,,,0.00,meteohub,2013-08-26 01:17:00,
2013-08-25 18:22:00,85.3,59.5,29.79,SW,225,2.0,3.0,42,0.00,,,0.00,meteohub,2013-08-26 01:22:00,
2013-08-25 18:27:00,84.7,59.7,29.79,West,270,2.0,3.0,43,0.00,,,0.00,meteohub,2013-08-26 01:27:00,
2013-08-25 18:32:00,84.2,59.4,29.79,SW,225,2.0,3.0,43,0.00,,,0.00,meteohub,2013-08-26 01:32:00,
2013-08-25 18:37:00,83.8,59.5,29.78,NW,315,1.0,3.0,44,0.00,,,0.00,meteohub,2013-08-26 01:37:00,
2013-08-25 18:42:00,83.5,59.9,29.78,SW,225,2.0,5.0,45,0.00,,,0.00,meteohub,2013-08-26 01:42:00,
2013-08-25 18:47:00,83.3,59.7,29.78,North,0,2.0,5.0,45,0.00,,,0.00,meteohub,2013-08-26 01:47:00,
2013-08-25 18:52:00,82.8,59.2,29.79,SW,225,3.0,5.0,45,0.00,,,0.00,meteohub,2013-08-26 01:52:00,
2013-08-25 18:57:00,82.4,59.0,29.78,NE,45,3.0,3.0,45,0.00,,,0.00,meteohub,2013-08-26 01:57:00,
2013-08-25 19:02:00,82.0,59.2,29.78,NE,45,4.0,4.0,46,0.00,,,0.00,meteohub,2013-08-26 02:02:00,
2013-08-25 19:07:00,82.0,59.2,29.79,NE,45,4.0,4.0,46,0.00,,,0.00,meteohub,2013-08-26 02:07:00,
2013-08-25 19:12:00,81.3,59.2,29.79,NE,45,2.0,4.0,47,0.00,,,0.00,meteohub,2013-08-26 02:12:00,
2013-08-25 19:17:00,81.0,58.8,29.79,West,270,2.0,4.0,47,0.00,,,0.00,meteohub,2013-08-26 02:17:00,
2013-08-25 19:22:00,80.6,59.2,29.79,West,270,0.0,4.0,48,0.00,,,0.00,meteohub,2013-08-26 02:22:00,
2013-08-25 19:27:00,80.2,59.4,29.80,West,270,2.0,3.0,49,0.00,,,0.00,meteohub,2013-08-26 02:27:00,
2013-08-25 19:32:00,79.7,59.4,29.79,West,270,2.0,3.0,50,0.00,,,0.00,meteohub,2013-08-26 02:32:00,
2013-08-25 19:37:00,79.2,58.3,29.79,West,270,1.0,2.0,49,0.00,,,0.00,meteohub,2013-08-26 02:37:00,
2013-08-25 19:42:00,78.8,58.6,29.79,South,180,0.0,2.0,50,0.00,,,0.00,meteohub,2013-08-26 02:42:00,
2013-08-25 19:47:00,78.1,58.5,29.79,South,180,1.0,2.0,51,0.00,,,0.00,meteohub,2013-08-26 02:47:00,
2013-08-25 19:52:00,77.5,59.0,29.79,SE,135,1.0,2.0,53,0.00,,,0.00,meteohub,2013-08-26 02:52:00,
2013-08-25 19:57:00,77.0,59.0,29.79,SE,135,1.0,2.0,54,0.00,,,0.00,meteohub,2013-08-26 02:57:00,
2013-08-25 20:02:00,76.5,59.2,29.80,SE,135,1.0,2.0,55,0.00,,,0.00,meteohub,2013-08-26 03:02:00,
2013-08-25 20:07:00,76.5,59.2,29.80,SE,135,1.0,1.0,55,0.00,,,0.00,meteohub,2013-08-26 03:07:00,
2013-08-25 20:12:00,75.4,58.6,29.80,North,0,0.0,1.0,56,0.00,,,0.00,meteohub,2013-08-26 03:12:00,
2013-08-25 20:17:00,74.8,58.6,29.81,West,270,1.0,2.0,57,0.00,,,0.00,meteohub,2013-08-26 03:17:00,
2013-08-25 20:22:00,74.5,58.8,29.81,NE,45,0.0,2.0,58,0.00,,,0.00,meteohub,2013-08-26 03:22:00,
2013-08-25 20:27:00,74.1,58.8,29.81,North,0,1.0,2.0,59,0.00,,,0.00,meteohub,2013-08-26 03:27:00,
2013-08-25 20:32:00,73.6,58.8,29.81,SE,135,1.0,2.0,60,0.00,,,0.00,meteohub,2013-08-26 03:32:00,
2013-08-25 20:37:00,73.0,58.8,29.81,SW,225,2.0,2.0,61,0.00,,,0.00,meteohub,2013-08-26 03:37:00,
2013-08-25 20:42:00,72.7,58.8,29.81,West,270,1.0,2.0,62,0.00,,,0.00,meteohub,2013-08-26 03:42:00,
2013-08-25 20:47:00,72.1,58.8,29.82,West,270,2.0,2.0,63,0.00,,,0.00,meteohub,2013-08-26 03:47:00,
2013-08-25 20:52:00,71.6,58.8,29.81,West,270,2.0,2.0,64,0.00,,,0.00,meteohub,2013-08-26 03:52:00,
2013-08-25 20:57:00,71.2,58.8,29.82,West,270,1.0,2.0,65,0.00,,,0.00,meteohub,2013-08-26 03:57:00,
2013-08-25 21:01:00,70.7,58.8,29.82,West,270,2.0,2.0,66,0.00,,,0.00,meteohub,2013-08-26 04:01:00,
2013-08-25 21:02:00,70.7,58.8,29.82,West,270,2.0,2.0,66,0.00,,,0.00,meteohub,2013-08-26 04:02:00,
2013-08-25 21:07:00,70.7,58.8,29.82,West,270,2.0,2.0,66,0.00,,,0.00,meteohub,2013-08-26 04:07:00,
2013-08-25 21:12:00,70.3,58.5,29.82,SE,135,1.0,2.0,66,0.00,,,0.00,meteohub,2013-08-26 04:12:00,
2013-08-25 21:18:00,70.2,58.3,29.82,NW,315,0.0,2.0,66,0.00,,,0.00,meteohub,2013-08-26 04:18:00,
2013-08-25 21:23:00,69.8,57.9,29.83,NE,45,0.0,2.0,66,0.00,,,0.00,meteohub,2013-08-26 04:23:00,
2013-08-25 21:28:00,69.6,58.1,29.83,NE,45,1.0,2.0,67,0.00,,,0.00,meteohub,2013-08-26 04:28:00,
2013-08-25 21:33:00,69.3,57.9,29.83,NE,45,1.0,2.0,67,0.00,,,0.00,meteohub,2013-08-26 04:33:00,
2013-08-25 21:38:00,69.1,57.7,29.84,NE,45,1.0,2.0,67,0.00,,,0.00,meteohub,2013-08-26 04:38:00,
2013-08-25 21:43:00,68.9,57.6,29.83,NE,45,1.0,2.0,67,0.00,,,0.00,meteohub,2013-08-26 04:43:00,
2013-08-25 21:48:00,68.5,57.6,29.83,East,90,1.0,2.0,68,0.00,,,0.00,meteohub,2013-08-26 04:48:00,
2013-08-25 21:53:00,68.4,57.4,29.84,NW,315,1.0,2.0,68,0.00,,,0.00,meteohub,2013-08-26 04:53:00,
2013-08-25 21:58:00,68.2,57.2,29.84,South,180,1.0,2.0,68,0.00,,,0.00,meteohub,2013-08-26 04:58:00,
2013-08-25 22:03:00,68.0,57.4,29.84,SW,225,1.0,2.0,69,0.00,,,0.00,meteohub,2013-08-26 05:03:00,
2013-08-25 22:08:00,67.5,57.0,29.84,West,270,1.0,2.0,69,0.00,,,0.00,meteohub,2013-08-26 05:08:00,
2013-08-25 22:13:00,67.3,57.2,29.84,West,270,2.0,2.0,70,0.00,,,0.00,meteohub,2013-08-26 05:13:00,
2013-08-25 22:19:00,67.1,57.0,29.84,SW,225,1.0,2.0,70,0.00,,,0.00,meteohub,2013-08-26 05:19:00,
2013-08-25 22:24:00,66.9,56.8,29.84,West,270,1.0,3.0,70,0.00,,,0.00,meteohub,2013-08-26 05:24:00,
2013-08-25 22:29:00,66.7,57.0,29.84,NE,45,1.0,3.0,71,0.00,,,0.00,meteohub,2013-08-26 05:29:00,
2013-08-25 22:34:00,66.6,56.8,29.84,West,270,2.0,2.0,71,0.00,,,0.00,meteohub,2013-08-26 05:34:00,
2013-08-25 22:39:00,66.4,57.0,29.84,South,180,1.0,2.0,72,0.00,,,0.00,meteohub,2013-08-26 05:39:00,
2013-08-25 22:44:00,66.2,56.8,29.84,South,180,2.0,2.0,72,0.00,,,0.00,meteohub,2013-08-26 05:44:00,
2013-08-25 22:49:00,66.0,57.2,29.84,SW,225,2.0,2.0,73,0.00,,,0.00,meteohub,2013-08-26 05:49:00,
2013-08-25 22:54:00,65.8,57.0,29.84,SE,135,2.0,2.0,73,0.00,,,0.00,meteohub,2013-08-26 05:54:00,
2013-08-25 22:59:00,65.7,57.2,29.84,SW,225,2.0,2.0,74,0.00,,,0.00,meteohub,2013-08-26 05:59:00,
2013-08-25 23:05:00,65.7,57.2,29.84,West,270,2.0,2.0,74,0.00,,,0.00,meteohub,2013-08-26 06:05:00,
2013-08-25 23:10:00,65.5,57.4,29.84,West,270,2.0,2.0,75,0.00,,,0.00,meteohub,2013-08-26 06:10:00,
2013-08-25 23:15:00,65.1,57.0,29.84,SW,225,2.0,2.0,75,0.00,,,0.00,meteohub,2013-08-26 06:15:00,
2013-08-25 23:20:00,64.9,57.2,29.84,SW,225,2.0,2.0,76,0.00,,,0.00,meteohub,2013-08-26 06:20:00,
2013-08-25 23:25:00,64.8,57.0,29.84,NW,315,2.0,2.0,76,0.00,,,0.00,meteohub,2013-08-26 06:25:00,
2013-08-25 23:30:00,64.8,57.0,29.84,NW,315,1.0,2.0,76,0.00,,,0.00,meteohub,2013-08-26 06:30:00,
2013-08-25 23:35:00,64.6,57.2,29.84,SE,135,2.0,2.0,77,0.00,,,0.00,meteohub,2013-08-26 06:35:00,
2013-08-25 23:40:00,64.2,56.8,29.84,SE,135,2.0,3.0,77,0.00,,,0.00,meteohub,2013-08-26 06:40:00,
2013-08-25 23:45:00,64.2,57.2,29.84,North,0,2.0,3.0,78,0.00,,,0.00,meteohub,2013-08-26 06:45:00,
2013-08-25 23:50:00,64.0,57.0,29.85,SW,225,2.0,3.0,78,0.00,,,0.00,meteohub,2013-08-26 06:50:00,
2013-08-25 23:55:00,63.9,56.8,29.85,SW,225,0.0,3.0,78,0.00,,,0.00,meteohub,2013-08-26 06:55:00,